Year,Month,Day,Hour,Minute,Value (Times are PST for windspeed in km/hr)
2008,04,16,00,00,3.70
2008,04,16,00,01,4.60
2008,04,16,00,02,4.80
2008,04,16,00,03,4.80
2008,04,16,00,04,3.20
2008,04,16,00,05,5.30
2008,04,16,00,06,7.10
2008,04,16,00,07,4.10
2008,04,16,00,08,3.70
2008,04,16,00,09,3.30
2008,04,16,00,10,3.70
2008,04,16,00,11,2.70
2008,04,16,00,12,5.50
2008,04,16,00,13,6.50
2008,04,16,00,14,3.60
2008,04,16,00,15,3.20
2008,04,16,00,16,2.40
2008,04,16,00,17,4.30
2008,04,16,00,18,3.50
2008,04,16,00,19,2.60
2008,04,16,00,20,1.50
2008,04,16,00,21,3.20
2008,04,16,00,22,1.90
2008,04,16,00,23,0.60
2008,04,16,00,24,2.90
2008,04,16,00,25,2.00
2008,04,16,00,26,1.30
2008,04,16,00,27,3.70
2008,04,16,00,28,1.40
2008,04,16,00,29,2.00
2008,04,16,00,30,2.80
2008,04,16,00,31,3.70
2008,04,16,00,32,2.60
2008,04,16,00,33,2.40
2008,04,16,00,34,1.00
2008,04,16,00,35,1.90
2008,04,16,00,36,2.70
2008,04,16,00,37,2.30
2008,04,16,00,38,2.60
2008,04,16,00,39,1.70
2008,04,16,00,40,1.90
2008,04,16,00,41,1.50
2008,04,16,00,42,1.10
2008,04,16,00,43,1.20
2008,04,16,00,44,1.10
2008,04,16,00,45,0.90
2008,04,16,00,46,1.90
2008,04,16,00,47,1.00
2008,04,16,00,48,1.10
2008,04,16,00,49,3.00
2008,04,16,00,50,0.50
2008,04,16,00,51,2.20
2008,04,16,00,52,1.80
2008,04,16,00,53,4.30
2008,04,16,00,54,3.50
2008,04,16,00,55,1.70
2008,04,16,00,56,1.60
2008,04,16,00,57,1.80
2008,04,16,00,58,3.30
2008,04,16,00,59,2.50
2008,04,16,01,00,5.90
2008,04,16,01,01,3.10
2008,04,16,01,02,2.40
2008,04,16,01,03,5.80
2008,04,16,01,04,3.90
2008,04,16,01,05,2.00
2008,04,16,01,06,4.20
2008,04,16,01,07,2.30
2008,04,16,01,08,2.20
2008,04,16,01,09,1.90
2008,04,16,01,10,2.00
2008,04,16,01,11,3.20
2008,04,16,01,12,2.20
2008,04,16,01,13,0.00
2008,04,16,01,14,0.20
2008,04,16,01,15,1.90
2008,04,16,01,16,0.70
2008,04,16,01,17,0.20
2008,04,16,01,18,3.10
2008,04,16,01,19,0.40
2008,04,16,01,20,0.90
2008,04,16,01,21,0.60
2008,04,16,01,22,2.00
2008,04,16,01,23,1.80
2008,04,16,01,24,2.20
2008,04,16,01,25,0.10
2008,04,16,01,26,0.30
2008,04,16,01,27,0.60
2008,04,16,01,28,1.30
2008,04,16,01,29,1.40
2008,04,16,01,30,0.80
2008,04,16,01,31,0.80
2008,04,16,01,32,0.10
2008,04,16,01,33,0.80
2008,04,16,01,34,3.20
2008,04,16,01,35,1.40
2008,04,16,01,36,0.80
2008,04,16,01,37,1.40
2008,04,16,01,38,1.50
2008,04,16,01,39,0.30
2008,04,16,01,40,1.90
2008,04,16,01,41,0.50
2008,04,16,01,42,0.40
2008,04,16,01,43,0.60
2008,04,16,01,44,0.10
2008,04,16,01,45,3.30
2008,04,16,01,46,4.10
2008,04,16,01,47,3.70
2008,04,16,01,48,1.60
2008,04,16,01,49,1.40
2008,04,16,01,50,2.00
2008,04,16,01,51,0.20
2008,04,16,01,52,0.00
2008,04,16,01,53,0.00
2008,04,16,01,54,2.80
2008,04,16,01,55,6.30
2008,04,16,01,56,2.60
2008,04,16,01,57,1.80
2008,04,16,01,58,1.40
2008,04,16,01,59,1.10
2008,04,16,02,00,3.40
2008,04,16,02,01,0.70
2008,04,16,02,02,3.50
2008,04,16,02,03,1.30
2008,04,16,02,04,1.30
2008,04,16,02,05,1.20
2008,04,16,02,06,3.30
2008,04,16,02,07,1.80
2008,04,16,02,08,0.70
2008,04,16,02,09,2.40
2008,04,16,02,10,2.60
2008,04,16,02,11,0.70
2008,04,16,02,12,1.60
2008,04,16,02,13,1.50
2008,04,16,02,14,0.50
2008,04,16,02,15,1.50
2008,04,16,02,16,0.70
2008,04,16,02,17,1.80
2008,04,16,02,18,2.90
2008,04,16,02,19,1.10
2008,04,16,02,20,1.30
2008,04,16,02,21,0.50
2008,04,16,02,22,0.50
2008,04,16,02,23,0.50
2008,04,16,02,24,0.50
2008,04,16,02,25,0.20
2008,04,16,02,26,1.50
2008,04,16,02,27,3.10
2008,04,16,02,28,0.10
2008,04,16,02,29,1.50
2008,04,16,02,30,2.50
2008,04,16,02,31,2.60
2008,04,16,02,32,2.40
2008,04,16,02,33,3.30
2008,04,16,02,34,0.80
2008,04,16,02,35,1.00
2008,04,16,02,36,2.40
2008,04,16,02,37,1.00
2008,04,16,02,38,2.30
2008,04,16,02,39,5.20
2008,04,16,02,40,3.30
2008,04,16,02,41,2.30
2008,04,16,02,42,2.40
2008,04,16,02,43,0.80
2008,04,16,02,44,0.80
2008,04,16,02,45,1.40
2008,04,16,02,46,2.30
2008,04,16,02,47,3.40
2008,04,16,02,48,3.50
2008,04,16,02,49,2.20
2008,04,16,02,50,1.20
2008,04,16,02,51,5.50
2008,04,16,02,52,5.30
2008,04,16,02,53,3.60
2008,04,16,02,54,6.50
2008,04,16,02,55,1.20
2008,04,16,02,56,4.30
2008,04,16,02,57,5.80
2008,04,16,02,58,5.60
2008,04,16,02,59,2.30
2008,04,16,03,00,6.50
2008,04,16,03,01,6.50
2008,04,16,03,02,6.10
2008,04,16,03,03,9.00
2008,04,16,03,04,5.40
2008,04,16,03,05,2.90
2008,04,16,03,06,1.00
2008,04,16,03,07,0.70
2008,04,16,03,08,0.20
2008,04,16,03,09,0.10
2008,04,16,03,10,0.20
2008,04,16,03,11,0.00
2008,04,16,03,12,0.60
2008,04,16,03,13,0.20
2008,04,16,03,14,0.50
2008,04,16,03,15,0.00
2008,04,16,03,16,0.00
2008,04,16,03,17,0.80
2008,04,16,03,18,0.00
2008,04,16,03,19,0.00
2008,04,16,03,20,1.40
2008,04,16,03,21,2.90
2008,04,16,03,22,2.60
2008,04,16,03,23,1.30
2008,04,16,03,24,0.90
2008,04,16,03,25,4.70
2008,04,16,03,26,5.10
2008,04,16,03,27,1.50
2008,04,16,03,28,1.70
2008,04,16,03,29,0.40
2008,04,16,03,30,1.60
2008,04,16,03,31,2.50
2008,04,16,03,32,0.90
2008,04,16,03,33,1.00
2008,04,16,03,34,3.40
2008,04,16,03,35,3.70
2008,04,16,03,36,3.10
2008,04,16,03,37,5.10
2008,04,16,03,38,1.50
2008,04,16,03,39,4.00
2008,04,16,03,40,4.60
2008,04,16,03,41,1.80
2008,04,16,03,42,0.40
2008,04,16,03,43,2.30
2008,04,16,03,44,4.80
2008,04,16,03,45,0.20
2008,04,16,03,46,1.00
2008,04,16,03,47,1.30
2008,04,16,03,48,1.60
2008,04,16,03,49,2.90
2008,04,16,03,50,3.70
2008,04,16,03,51,2.30
2008,04,16,03,52,2.50
2008,04,16,03,53,2.80
2008,04,16,03,54,6.80
2008,04,16,03,55,2.70
2008,04,16,03,56,3.40
2008,04,16,03,57,1.90
2008,04,16,03,58,2.40
2008,04,16,03,59,1.70
2008,04,16,04,00,1.80
2008,04,16,04,01,1.70
2008,04,16,04,02,2.50
2008,04,16,04,03,3.60
2008,04,16,04,04,1.60
2008,04,16,04,05,3.80
2008,04,16,04,06,1.90
2008,04,16,04,07,1.30
2008,04,16,04,08,2.50
2008,04,16,04,09,1.10
2008,04,16,04,10,0.00
2008,04,16,04,11,0.10
2008,04,16,04,12,2.70
2008,04,16,04,13,1.60
2008,04,16,04,14,3.00
2008,04,16,04,15,4.80
2008,04,16,04,16,2.00
2008,04,16,04,17,0.50
2008,04,16,04,18,0.00
2008,04,16,04,19,0.00
2008,04,16,04,20,0.00
2008,04,16,04,21,3.70
2008,04,16,04,22,1.60
2008,04,16,04,23,0.10
2008,04,16,04,24,0.60
2008,04,16,04,25,4.90
2008,04,16,04,26,2.10
2008,04,16,04,27,0.00
2008,04,16,04,28,0.10
2008,04,16,04,29,1.20
2008,04,16,04,30,1.70
2008,04,16,04,31,1.60
2008,04,16,04,32,4.20
2008,04,16,04,33,1.90
2008,04,16,04,34,2.70
2008,04,16,04,35,3.70
2008,04,16,04,36,2.20
2008,04,16,04,37,3.30
2008,04,16,04,38,6.00
2008,04,16,04,39,3.50
2008,04,16,04,40,2.60
2008,04,16,04,41,0.20
2008,04,16,04,42,2.30
2008,04,16,04,43,2.60
2008,04,16,04,44,3.10
2008,04,16,04,45,2.10
2008,04,16,04,46,2.80
2008,04,16,04,47,3.40
2008,04,16,04,48,2.20
2008,04,16,04,49,4.60
2008,04,16,04,50,4.50
2008,04,16,04,51,3.40
2008,04,16,04,52,5.20
2008,04,16,04,53,2.60
2008,04,16,04,54,3.30
2008,04,16,04,55,5.20
2008,04,16,04,56,4.30
2008,04,16,04,57,3.20
2008,04,16,04,58,6.30
2008,04,16,04,59,3.20
2008,04,16,05,00,5.60
2008,04,16,05,01,5.40
2008,04,16,05,02,6.30
2008,04,16,05,03,1.20
2008,04,16,05,04,3.00
2008,04,16,05,05,0.60
2008,04,16,05,06,0.60
2008,04,16,05,07,1.50
2008,04,16,05,08,1.40
2008,04,16,05,09,2.00
2008,04,16,05,10,1.10
2008,04,16,05,11,0.60
2008,04,16,05,12,0.80
2008,04,16,05,13,0.20
2008,04,16,05,14,2.70
2008,04,16,05,15,2.50
2008,04,16,05,16,4.20
2008,04,16,05,17,2.20
2008,04,16,05,18,3.60
2008,04,16,05,19,2.30
2008,04,16,05,20,0.40
2008,04,16,05,21,2.70
2008,04,16,05,22,2.90
2008,04,16,05,23,5.60
2008,04,16,05,24,4.20
2008,04,16,05,25,4.50
2008,04,16,05,26,5.30
2008,04,16,05,27,8.40
2008,04,16,05,28,7.40
2008,04,16,05,29,7.50
2008,04,16,05,30,5.70
2008,04,16,05,31,8.40
2008,04,16,05,32,8.80
2008,04,16,05,33,6.70
2008,04,16,05,34,8.90
2008,04,16,05,35,10.10
2008,04,16,05,36,11.70
2008,04,16,05,37,10.90
2008,04,16,05,38,8.10
2008,04,16,05,39,6.90
2008,04,16,05,40,8.40
2008,04,16,05,41,10.60
2008,04,16,05,42,9.00
2008,04,16,05,43,7.80
2008,04,16,05,44,7.70
2008,04,16,05,45,9.50
2008,04,16,05,46,9.60
2008,04,16,05,47,9.30
2008,04,16,05,48,2.30
2008,04,16,05,49,6.00
2008,04,16,05,50,6.10
2008,04,16,05,51,3.30
2008,04,16,05,52,2.20
2008,04,16,05,53,3.70
2008,04,16,05,54,0.20
2008,04,16,05,55,0.10
2008,04,16,05,56,0.50
2008,04,16,05,57,1.10
2008,04,16,05,58,1.70
2008,04,16,05,59,2.70
2008,04,16,06,00,1.40
2008,04,16,06,01,3.10
2008,04,16,06,02,1.80
2008,04,16,06,03,7.80
2008,04,16,06,04,4.50
2008,04,16,06,05,2.90
2008,04,16,06,06,1.10
2008,04,16,06,07,0.40
2008,04,16,06,08,0.40
2008,04,16,06,09,0.80
2008,04,16,06,10,0.50
2008,04,16,06,11,0.00
2008,04,16,06,12,0.00
2008,04,16,06,13,0.00
2008,04,16,06,14,0.00
2008,04,16,06,15,0.00
2008,04,16,06,16,0.00
2008,04,16,06,17,0.00
2008,04,16,06,18,0.40
2008,04,16,06,19,0.00
2008,04,16,06,20,0.00
2008,04,16,06,21,0.00
2008,04,16,06,22,0.80
2008,04,16,06,23,0.00
2008,04,16,06,24,0.00
2008,04,16,06,25,0.50
2008,04,16,06,26,0.80
2008,04,16,06,27,0.00
2008,04,16,06,28,0.00
2008,04,16,06,29,0.40
2008,04,16,06,30,0.00
2008,04,16,06,31,2.20
2008,04,16,06,32,2.40
2008,04,16,06,33,2.00
2008,04,16,06,34,2.00
2008,04,16,06,35,4.80
2008,04,16,06,36,2.30
2008,04,16,06,37,2.70
2008,04,16,06,38,1.10
2008,04,16,06,39,0.10
2008,04,16,06,40,0.10
2008,04,16,06,41,0.40
2008,04,16,06,42,1.70
2008,04,16,06,43,0.00
2008,04,16,06,44,0.00
2008,04,16,06,45,0.00
2008,04,16,06,46,0.00
2008,04,16,06,47,0.30
2008,04,16,06,48,0.00
2008,04,16,06,49,0.00
2008,04,16,06,50,0.00
2008,04,16,06,51,0.70
2008,04,16,06,52,0.80
2008,04,16,06,53,0.30
2008,04,16,06,54,0.70
2008,04,16,06,55,0.10
2008,04,16,06,56,0.00
2008,04,16,06,57,0.00
2008,04,16,06,58,0.00
2008,04,16,06,59,0.10
2008,04,16,07,00,1.00
2008,04,16,07,01,0.00
2008,04,16,07,02,0.20
2008,04,16,07,03,0.20
2008,04,16,07,04,0.20
2008,04,16,07,05,0.90
2008,04,16,07,06,0.30
2008,04,16,07,07,0.00
2008,04,16,07,08,0.00
2008,04,16,07,09,0.20
2008,04,16,07,10,0.00
2008,04,16,07,11,0.00
2008,04,16,07,12,0.00
2008,04,16,07,13,0.00
2008,04,16,07,14,0.00
2008,04,16,07,15,0.00
2008,04,16,07,16,0.00
2008,04,16,07,17,0.00
2008,04,16,07,18,0.00
2008,04,16,07,19,0.00
2008,04,16,07,20,0.00
2008,04,16,07,21,0.00
2008,04,16,07,22,0.00
2008,04,16,07,23,0.00
2008,04,16,07,24,0.00
2008,04,16,07,25,0.00
2008,04,16,07,26,0.00
2008,04,16,07,27,0.00
2008,04,16,07,28,0.00
2008,04,16,07,29,0.00
2008,04,16,07,30,0.00
2008,04,16,07,31,0.10
2008,04,16,07,32,0.00
2008,04,16,07,33,0.00
2008,04,16,07,34,0.20
2008,04,16,07,35,0.00
2008,04,16,07,36,0.00
2008,04,16,07,37,0.10
2008,04,16,07,38,0.80
2008,04,16,07,39,0.20
2008,04,16,07,40,0.00
2008,04,16,07,41,0.10
2008,04,16,07,42,0.00
2008,04,16,07,43,0.10
2008,04,16,07,44,0.00
2008,04,16,07,45,0.00
2008,04,16,07,46,0.40
2008,04,16,07,47,0.00
2008,04,16,07,48,0.00
2008,04,16,07,49,0.00
2008,04,16,07,50,0.00
2008,04,16,07,51,0.00
2008,04,16,07,52,0.00
2008,04,16,07,53,0.00
2008,04,16,07,54,0.00
2008,04,16,07,55,0.00
2008,04,16,07,56,0.00
2008,04,16,07,57,0.00
2008,04,16,07,58,0.00
2008,04,16,07,59,0.00
2008,04,16,08,00,0.00
2008,04,16,08,01,0.00
2008,04,16,08,02,0.00
2008,04,16,08,03,0.00
2008,04,16,08,04,0.00
2008,04,16,08,05,0.00
2008,04,16,08,06,0.00
2008,04,16,08,07,0.00
2008,04,16,08,08,0.00
2008,04,16,08,09,0.00
2008,04,16,08,10,0.10
2008,04,16,08,11,0.10
2008,04,16,08,12,0.10
2008,04,16,08,13,0.00
2008,04,16,08,14,0.00
2008,04,16,08,15,0.00
2008,04,16,08,16,0.00
2008,04,16,08,17,0.00
2008,04,16,08,18,0.00
2008,04,16,08,19,0.00
2008,04,16,08,20,0.00
2008,04,16,08,21,0.00
2008,04,16,08,22,0.00
2008,04,16,08,23,0.00
2008,04,16,08,24,0.00
2008,04,16,08,25,0.20
2008,04,16,08,26,0.20
2008,04,16,08,27,0.00
2008,04,16,08,28,0.00
2008,04,16,08,29,0.00
2008,04,16,08,30,0.20
2008,04,16,08,31,0.00
2008,04,16,08,32,0.00
2008,04,16,08,33,0.00
2008,04,16,08,34,0.00
2008,04,16,08,35,0.30
2008,04,16,08,36,0.00
2008,04,16,08,37,0.00
2008,04,16,08,38,0.00
2008,04,16,08,39,0.00
2008,04,16,08,40,0.00
2008,04,16,08,41,0.00
2008,04,16,08,42,0.00
2008,04,16,08,43,0.00
2008,04,16,08,44,0.00
2008,04,16,08,45,0.00
2008,04,16,08,46,0.00
2008,04,16,08,47,0.00
2008,04,16,08,48,0.00
2008,04,16,08,49,0.00
2008,04,16,08,50,0.00
2008,04,16,08,51,0.00
2008,04,16,08,52,0.00
2008,04,16,08,53,0.10
2008,04,16,08,54,0.00
2008,04,16,08,55,0.10
2008,04,16,08,56,0.00
2008,04,16,08,57,0.00
2008,04,16,08,58,0.00
2008,04,16,08,59,0.00
2008,04,16,09,00,0.00
2008,04,16,09,01,0.00
2008,04,16,09,02,0.00
2008,04,16,09,03,0.00
2008,04,16,09,04,0.00
2008,04,16,09,05,0.00
2008,04,16,09,06,0.00
2008,04,16,09,07,0.00
2008,04,16,09,08,0.00
2008,04,16,09,09,0.00
2008,04,16,09,10,0.00
2008,04,16,09,11,0.00
2008,04,16,09,12,0.00
2008,04,16,09,13,0.00
2008,04,16,09,14,0.00
2008,04,16,09,15,0.00
2008,04,16,09,16,0.00
2008,04,16,09,17,0.20
2008,04,16,09,18,0.10
2008,04,16,09,19,0.00
2008,04,16,09,20,0.00
2008,04,16,09,21,0.00
2008,04,16,09,22,0.10
2008,04,16,09,23,0.00
2008,04,16,09,24,0.20
2008,04,16,09,25,0.00
2008,04,16,09,26,1.50
2008,04,16,09,27,4.30
2008,04,16,09,28,3.60
2008,04,16,09,29,2.00
2008,04,16,09,30,1.60
2008,04,16,09,31,1.60
2008,04,16,09,32,0.60
2008,04,16,09,33,3.50
2008,04,16,09,34,2.80
2008,04,16,09,35,5.50
2008,04,16,09,36,6.00
2008,04,16,09,37,4.20
2008,04,16,09,38,3.80
2008,04,16,09,39,2.10
2008,04,16,09,40,0.60
2008,04,16,09,41,0.10
2008,04,16,09,42,0.10
2008,04,16,09,43,0.50
2008,04,16,09,44,0.30
2008,04,16,09,45,0.00
2008,04,16,09,46,0.80
2008,04,16,09,47,1.20
2008,04,16,09,48,1.60
2008,04,16,09,49,1.20
2008,04,16,09,50,1.90
2008,04,16,09,51,2.70
2008,04,16,09,52,0.60
2008,04,16,09,53,2.10
2008,04,16,09,54,4.50
2008,04,16,09,55,3.40
2008,04,16,09,56,2.90
2008,04,16,09,57,2.00
2008,04,16,09,58,0.60
2008,04,16,09,59,0.00
2008,04,16,10,00,0.50
2008,04,16,10,01,0.50
2008,04,16,10,02,0.60
2008,04,16,10,03,0.40
2008,04,16,10,04,1.40
2008,04,16,10,05,3.00
2008,04,16,10,06,2.10
2008,04,16,10,07,0.30
2008,04,16,10,08,0.00
2008,04,16,10,09,0.50
2008,04,16,10,10,0.50
2008,04,16,10,11,0.40
2008,04,16,10,12,1.50
2008,04,16,10,13,0.50
2008,04,16,10,14,0.00
2008,04,16,10,15,0.00
2008,04,16,10,16,0.20
2008,04,16,10,17,0.10
2008,04,16,10,18,0.40
2008,04,16,10,19,1.40
2008,04,16,10,20,2.10
2008,04,16,10,21,3.00
2008,04,16,10,22,2.80
2008,04,16,10,23,0.40
2008,04,16,10,24,7.00
2008,04,16,10,25,4.90
2008,04,16,10,26,3.90
2008,04,16,10,27,4.20
2008,04,16,10,28,6.60
2008,04,16,10,29,2.30
2008,04,16,10,30,0.60
2008,04,16,10,31,2.20
2008,04,16,10,32,1.30
2008,04,16,10,33,0.10
2008,04,16,10,34,0.60
2008,04,16,10,35,1.30
2008,04,16,10,36,0.30
2008,04,16,10,37,0.80
2008,04,16,10,38,1.70
2008,04,16,10,39,3.90
2008,04,16,10,40,3.00
2008,04,16,10,41,5.00
2008,04,16,10,42,1.60
2008,04,16,10,43,0.10
2008,04,16,10,44,2.00
2008,04,16,10,45,1.10
2008,04,16,10,46,0.30
2008,04,16,10,47,1.00
2008,04,16,10,48,4.90
2008,04,16,10,49,5.20
2008,04,16,10,50,4.20
2008,04,16,10,51,0.70
2008,04,16,10,52,0.00
2008,04,16,10,53,2.50
2008,04,16,10,54,1.00
2008,04,16,10,55,0.00
2008,04,16,10,56,0.80
2008,04,16,10,57,2.60
2008,04,16,10,58,0.50
2008,04,16,10,59,1.30
2008,04,16,11,00,0.80
2008,04,16,11,01,3.90
2008,04,16,11,02,6.30
2008,04,16,11,03,12.20
2008,04,16,11,04,6.30
2008,04,16,11,05,6.00
2008,04,16,11,06,1.30
2008,04,16,11,07,2.10
2008,04,16,11,08,6.90
2008,04,16,11,09,7.90
2008,04,16,11,10,4.70
2008,04,16,11,11,2.70
2008,04,16,11,12,1.60
2008,04,16,11,13,0.70
2008,04,16,11,14,6.40
2008,04,16,11,15,7.50
2008,04,16,11,16,9.10
2008,04,16,11,17,6.70
2008,04,16,11,18,7.10
2008,04,16,11,19,6.50
2008,04,16,11,20,2.60
2008,04,16,11,21,7.80
2008,04,16,11,22,4.50
2008,04,16,11,23,6.90
2008,04,16,11,24,4.40
2008,04,16,11,25,6.80
2008,04,16,11,26,7.10
2008,04,16,11,27,6.40
2008,04,16,11,28,6.30
2008,04,16,11,29,4.60
2008,04,16,11,30,3.40
2008,04,16,11,31,2.60
2008,04,16,11,32,0.60
2008,04,16,11,33,1.80
2008,04,16,11,34,4.00
2008,04,16,11,35,3.00
2008,04,16,11,36,5.60
2008,04,16,11,37,6.40
2008,04,16,11,38,5.20
2008,04,16,11,39,7.70
2008,04,16,11,40,7.00
2008,04,16,11,41,6.90
2008,04,16,11,42,12.90
2008,04,16,11,43,5.20
2008,04,16,11,44,7.70
2008,04,16,11,45,3.80
2008,04,16,11,46,3.00
2008,04,16,11,47,5.70
2008,04,16,11,48,7.80
2008,04,16,11,49,5.50
2008,04,16,11,50,8.80
2008,04,16,11,51,4.20
2008,04,16,11,52,8.00
2008,04,16,11,53,1.80
2008,04,16,11,54,0.00
2008,04,16,11,55,0.20
2008,04,16,11,56,3.90
2008,04,16,11,57,4.50
2008,04,16,11,58,0.70
2008,04,16,11,59,0.90
2008,04,16,12,00,1.30
2008,04,16,12,01,0.30
2008,04,16,12,02,2.60
2008,04,16,12,03,3.10
2008,04,16,12,04,2.80
2008,04,16,12,05,1.20
2008,04,16,12,06,1.10
2008,04,16,12,07,4.00
2008,04,16,12,08,7.10
2008,04,16,12,09,10.40
2008,04,16,12,10,12.00
2008,04,16,12,11,15.80
2008,04,16,12,12,15.40
2008,04,16,12,13,14.80
2008,04,16,12,14,5.60
2008,04,16,12,15,4.30
2008,04,16,12,16,4.80
2008,04,16,12,17,12.50
2008,04,16,12,18,6.90
2008,04,16,12,19,9.70
2008,04,16,12,20,11.60
2008,04,16,12,21,10.40
2008,04,16,12,22,9.90
2008,04,16,12,23,10.50
2008,04,16,12,24,15.50
2008,04,16,12,25,10.40
2008,04,16,12,26,12.40
2008,04,16,12,27,14.20
2008,04,16,12,28,10.80
2008,04,16,12,29,7.20
2008,04,16,12,30,7.80
2008,04,16,12,31,11.10
2008,04,16,12,32,11.80
2008,04,16,12,33,7.90
2008,04,16,12,34,12.90
2008,04,16,12,35,6.50
2008,04,16,12,36,10.30
2008,04,16,12,37,14.90
2008,04,16,12,38,12.10
2008,04,16,12,39,5.20
2008,04,16,12,40,12.60
2008,04,16,12,41,10.50
2008,04,16,12,42,8.50
2008,04,16,12,43,9.30
2008,04,16,12,44,10.40
2008,04,16,12,45,6.30
2008,04,16,12,46,11.30
2008,04,16,12,47,7.00
2008,04,16,12,48,7.90
2008,04,16,12,49,12.90
2008,04,16,12,50,6.80
2008,04,16,12,51,10.30
2008,04,16,12,52,10.20
2008,04,16,12,53,7.20
2008,04,16,12,54,4.00
2008,04,16,12,55,10.00
2008,04,16,12,56,7.80
2008,04,16,12,57,10.40
2008,04,16,12,58,10.00
2008,04,16,12,59,12.60
2008,04,16,13,00,11.20
2008,04,16,13,01,11.90
2008,04,16,13,02,13.00
2008,04,16,13,03,17.10
2008,04,16,13,04,18.20
2008,04,16,13,05,14.60
2008,04,16,13,06,11.80
2008,04,16,13,07,18.70
2008,04,16,13,08,16.90
2008,04,16,13,09,19.90
2008,04,16,13,10,15.80
2008,04,16,13,11,16.50
2008,04,16,13,12,14.70
2008,04,16,13,13,15.80
2008,04,16,13,14,15.20
2008,04,16,13,15,15.80
2008,04,16,13,16,16.10
2008,04,16,13,17,16.00
2008,04,16,13,18,17.10
2008,04,16,13,19,17.40
2008,04,16,13,20,14.90
2008,04,16,13,21,12.30
2008,04,16,13,22,13.20
2008,04,16,13,23,8.50
2008,04,16,13,24,15.80
2008,04,16,13,25,17.40
2008,04,16,13,26,19.40
2008,04,16,13,27,15.00
2008,04,16,13,28,8.90
2008,04,16,13,29,11.00
2008,04,16,13,30,11.30
2008,04,16,13,31,12.50
2008,04,16,13,32,9.80
2008,04,16,13,33,18.10
2008,04,16,13,34,12.70
2008,04,16,13,35,14.50
2008,04,16,13,36,16.70
2008,04,16,13,37,10.70
2008,04,16,13,38,11.60
2008,04,16,13,39,16.80
2008,04,16,13,40,15.20
2008,04,16,13,41,10.90
2008,04,16,13,42,7.80
2008,04,16,13,43,14.30
2008,04,16,13,44,15.20
2008,04,16,13,45,12.40
2008,04,16,13,46,15.10
2008,04,16,13,47,17.80
2008,04,16,13,48,13.80
2008,04,16,13,49,9.30
2008,04,16,13,50,15.50
2008,04,16,13,51,13.20
2008,04,16,13,52,8.00
2008,04,16,13,53,18.80
2008,04,16,13,54,13.30
2008,04,16,13,55,18.00
2008,04,16,13,56,17.70
2008,04,16,13,57,14.20
2008,04,16,13,58,13.90
2008,04,16,13,59,15.60
2008,04,16,14,00,14.70
2008,04,16,14,01,16.80
2008,04,16,14,02,12.90
2008,04,16,14,03,14.30
2008,04,16,14,04,9.70
2008,04,16,14,05,15.70
2008,04,16,14,06,8.90
2008,04,16,14,07,12.20
2008,04,16,14,08,11.40
2008,04,16,14,09,13.10
2008,04,16,14,10,8.50
2008,04,16,14,11,9.20
2008,04,16,14,12,12.10
2008,04,16,14,13,14.50
2008,04,16,14,14,13.60
2008,04,16,14,15,13.20
2008,04,16,14,16,8.10
2008,04,16,14,17,9.50
2008,04,16,14,18,7.70
2008,04,16,14,19,9.80
2008,04,16,14,20,10.20
2008,04,16,14,21,12.70
2008,04,16,14,22,9.90
2008,04,16,14,23,11.00
2008,04,16,14,24,7.20
2008,04,16,14,25,5.90
2008,04,16,14,26,8.70
2008,04,16,14,27,7.50
2008,04,16,14,28,6.40
2008,04,16,14,29,8.10
2008,04,16,14,30,9.50
2008,04,16,14,31,7.50
2008,04,16,14,32,8.80
2008,04,16,14,33,7.60
2008,04,16,14,34,9.90
2008,04,16,14,35,13.50
2008,04,16,14,36,14.20
2008,04,16,14,37,6.90
2008,04,16,14,38,7.10
2008,04,16,14,39,6.60
2008,04,16,14,40,9.70
2008,04,16,14,41,6.30
2008,04,16,14,42,10.90
2008,04,16,14,43,9.60
2008,04,16,14,44,12.20
2008,04,16,14,45,11.90
2008,04,16,14,46,12.10
2008,04,16,14,47,10.50
2008,04,16,14,48,4.10
2008,04,16,14,49,6.90
2008,04,16,14,50,14.50
2008,04,16,14,51,13.90
2008,04,16,14,52,19.80
2008,04,16,14,53,17.10
2008,04,16,14,54,10.60
2008,04,16,14,55,14.60
2008,04,16,14,56,15.40
2008,04,16,14,57,13.00
2008,04,16,14,58,10.50
2008,04,16,14,59,17.80
2008,04,16,15,00,12.10
2008,04,16,15,01,9.50
2008,04,16,15,02,13.60
2008,04,16,15,03,16.50
2008,04,16,15,04,11.60
2008,04,16,15,05,7.30
2008,04,16,15,06,14.70
2008,04,16,15,07,8.90
2008,04,16,15,08,11.60
2008,04,16,15,09,14.70
2008,04,16,15,10,7.20
2008,04,16,15,11,7.20
2008,04,16,15,12,11.30
2008,04,16,15,13,9.70
2008,04,16,15,14,11.70
2008,04,16,15,15,13.10
2008,04,16,15,16,12.80
2008,04,16,15,17,4.10
2008,04,16,15,18,5.40
2008,04,16,15,19,17.50
2008,04,16,15,20,16.00
2008,04,16,15,21,14.30
2008,04,16,15,22,11.70
2008,04,16,15,23,11.70
2008,04,16,15,24,11.50
2008,04,16,15,25,8.70
2008,04,16,15,26,10.70
2008,04,16,15,27,10.20
2008,04,16,15,28,7.00
2008,04,16,15,29,5.40
2008,04,16,15,30,5.70
2008,04,16,15,31,1.70
2008,04,16,15,32,1.10
2008,04,16,15,33,6.20
2008,04,16,15,34,7.70
2008,04,16,15,35,9.00
2008,04,16,15,36,15.80
2008,04,16,15,37,12.70
2008,04,16,15,38,7.00
2008,04,16,15,39,3.90
2008,04,16,15,40,9.10
2008,04,16,15,41,6.30
2008,04,16,15,42,11.30
2008,04,16,15,43,8.30
2008,04,16,15,44,8.00
2008,04,16,15,45,3.90
2008,04,16,15,46,7.40
2008,04,16,15,47,11.20
2008,04,16,15,48,9.30
2008,04,16,15,49,8.00
2008,04,16,15,50,5.10
2008,04,16,15,51,14.70
2008,04,16,15,52,15.60
2008,04,16,15,53,10.50
2008,04,16,15,54,9.60
2008,04,16,15,55,9.00
2008,04,16,15,56,8.50
2008,04,16,15,57,5.70
2008,04,16,15,58,9.80
2008,04,16,15,59,9.80
2008,04,16,16,00,10.40
2008,04,16,16,01,7.20
2008,04,16,16,02,8.30
2008,04,16,16,03,10.40
2008,04,16,16,04,9.70
2008,04,16,16,05,13.40
2008,04,16,16,06,12.60
2008,04,16,16,07,10.00
2008,04,16,16,08,7.90
2008,04,16,16,09,4.60
2008,04,16,16,10,8.50
2008,04,16,16,11,10.70
2008,04,16,16,12,6.40
2008,04,16,16,13,3.10
2008,04,16,16,14,4.30
2008,04,16,16,15,9.50
2008,04,16,16,16,13.80
2008,04,16,16,17,8.00
2008,04,16,16,18,15.00
2008,04,16,16,19,8.10
2008,04,16,16,20,12.30
2008,04,16,16,21,6.90
2008,04,16,16,22,8.60
2008,04,16,16,23,6.80
2008,04,16,16,24,3.20
2008,04,16,16,25,7.80
2008,04,16,16,26,9.70
2008,04,16,16,27,8.10
2008,04,16,16,28,8.10
2008,04,16,16,29,6.70
2008,04,16,16,30,6.80
2008,04,16,16,31,10.80
2008,04,16,16,32,9.90
2008,04,16,16,33,9.70
2008,04,16,16,34,4.60
2008,04,16,16,35,8.00
2008,04,16,16,36,7.90
2008,04,16,16,37,6.40
2008,04,16,16,38,7.80
2008,04,16,16,39,7.30
2008,04,16,16,40,9.90
2008,04,16,16,41,9.60
2008,04,16,16,42,3.70
2008,04,16,16,43,11.40
2008,04,16,16,44,8.50
2008,04,16,16,45,8.60
2008,04,16,16,46,4.90
2008,04,16,16,47,4.50
2008,04,16,16,48,6.60
2008,04,16,16,49,5.10
2008,04,16,16,50,7.20
2008,04,16,16,51,5.10
2008,04,16,16,52,6.40
2008,04,16,16,53,4.20
2008,04,16,16,54,7.90
2008,04,16,16,55,4.50
2008,04,16,16,56,3.70
2008,04,16,16,57,1.90
2008,04,16,16,58,1.00
2008,04,16,16,59,1.40
2008,04,16,17,00,4.50
2008,04,16,17,01,4.00
2008,04,16,17,02,7.50
2008,04,16,17,03,7.30
2008,04,16,17,04,6.20
2008,04,16,17,05,4.10
2008,04,16,17,06,6.00
2008,04,16,17,07,7.00
2008,04,16,17,08,9.70
2008,04,16,17,09,6.50
2008,04,16,17,10,12.70
2008,04,16,17,11,9.60
2008,04,16,17,12,9.30
2008,04,16,17,13,9.40
2008,04,16,17,14,8.00
2008,04,16,17,15,6.10
2008,04,16,17,16,10.40
2008,04,16,17,17,11.60
2008,04,16,17,18,5.50
2008,04,16,17,19,11.50
2008,04,16,17,20,7.00
2008,04,16,17,21,7.00
2008,04,16,17,22,6.90
2008,04,16,17,23,8.00
2008,04,16,17,24,10.30
2008,04,16,17,25,7.10
2008,04,16,17,26,12.60
2008,04,16,17,27,6.40
2008,04,16,17,28,6.30
2008,04,16,17,29,11.20
2008,04,16,17,30,18.20
2008,04,16,17,31,17.90
2008,04,16,17,32,15.30
2008,04,16,17,33,15.40
2008,04,16,17,34,10.50
2008,04,16,17,35,11.00
2008,04,16,17,36,13.00
2008,04,16,17,37,12.50
2008,04,16,17,38,14.70
2008,04,16,17,39,7.30
2008,04,16,17,40,11.20
2008,04,16,17,41,9.70
2008,04,16,17,42,7.90
2008,04,16,17,43,10.00
2008,04,16,17,44,10.20
2008,04,16,17,45,6.00
2008,04,16,17,46,6.40
2008,04,16,17,47,10.60
2008,04,16,17,48,12.40
2008,04,16,17,49,13.00
2008,04,16,17,50,15.20
2008,04,16,17,51,10.20
2008,04,16,17,52,8.40
2008,04,16,17,53,11.40
2008,04,16,17,54,7.20
2008,04,16,17,55,15.90
2008,04,16,17,56,12.30
2008,04,16,17,57,9.60
2008,04,16,17,58,6.50